map of SDU home
Great Circle Mapper logo
SDU - Airport
Location
City:  Rio de Janeiro, Rio de Janeiro, Brazil
Name:Aeroporto Santos Dumont
ICAO:SBRJ
IATA:SDU

Details
Type:Airport (Aerodrome, Airfield)
Use:Public/Civil, Military
Latitude:2254'38"S (-22.910460)
Longitude:4309'47"W (-43.163132)
Datum:WGS 1984
Elevation:11 ft (3 m)
Variation:22.62W (WMM2015 magnetic declination)
-0.10 annual change
Runways:2
Longest:4341 × 138 ft (1323 × 42 m), paved

Time
Time Zone:UTC-3 (DST-2)
Local Time:

Weather
METAR:SBRJ 060500Z 13002KT 9999 FEW020 SCT080 21/20 Q1019
TAF:SBRJ 052115Z 0600/0612 17005KT 9999 FEW020 TN20/0609Z TX22/0612Z
BECMG 0601/0603 10005KT
BECMG 0604/0606 35005KT 7000 NSC PROB30 0609/0612 3000 BR
RMK PGS

Related Locations
Nearby:
Farthest:IWO: 12132 mi / 19525 km
Iwo Jima [Iwo Jima AB], Iwo Jima Island, 13, JP

Find:

   beyond  
but within

Other Information
Maps:
NOTAMs:
Links:
Sources:

  
flag of Brazil
flag of Rio de Janeiro
flag of Rio de Janeiro
  

Sectional Chart

Flight Planning
at skyvector.com

Satellite Image

Google Maps Satellite view

 

Copyright © 2004-2016 Karl L. Swartz. All rights reserved.
The Great Circle Mapper name and logo are trademarks of the Great Circle Mapper.
All other trademarks mentioned herein belong to their respective owners.
Please see credits for attibutions and further copyright information.

  Follow gcmap on Facebook Follow gcmap on Twitter Follow gcmap on Google+ GCmap on LinkedIn

hCard Microformat

Geo Microformat